Regional Weather Roundup
Issued by NWS

Home | Current Version | Previous Version | Text Only | Print | Product List | Glossary On
Versions: 1 2 3 4 5 6 7 8 9 10 11 12 13 14 15 16 17 18 19 20 21 22 23 24 25 26 27 28 29 30 31 32 33 34 35 36 37 38 39 40 41 42 43 44 45 46 47 48 49 50
000
ASUS43 KBIS 241810
RWRND

NORTH DAKOTA REGIONAL WEATHER ROUNDUP
NATIONAL WEATHER SERVICE BISMARCK ND
100 PM CDT FRI MAR 24 2017

NOTE: "FAIR" INDICATES FEW OR NO CLOUDS BELOW 12,000 FEET WITH NO
SIGNIFICANT WEATHER AND/OR OBSTRUCTIONS TO VISIBILITY.


NDZ001>003-009>011-017-241900-
NORTHWEST NORTH DAKOTA

CITY           SKY/WX    TMP DP  RH WIND       PRES   REMARKS
WILLISTON      FAIR      48  32  53 SE8       30.12F
6HR MIN TEMP:  24; 6HR MAX TEMP:  48;

MINOT          FAIR      36  26  67 E10       30.20R
MINOT AFB      MOSUNNY   34  28  76 SE10      30.19R
$$

NDZ018>021-031>035-040>046-241900-
SOUTHWEST NORTH DAKOTA

CITY           SKY/WX    TMP DP  RH WIND       PRES   REMARKS
BISMARCK       FAIR      40  31  70 E9        30.19S
6HR MIN TEMP:  25; 6HR MAX TEMP:  41;

DICKINSON      FAIR      49  31  49 E5        30.11S
GARRISON         N/A     36  28  73 SE9       30.19R
6HR MIN TEMP:  25; 6HR MAX TEMP:  36;

HETTINGER ARPT SUNNY     47  39  74 VRB5      30.15R
$$

NDZ004>008-012>016-024-026-027-054-241900-
NORTHEAST NORTH DAKOTA

CITY           SKY/WX    TMP DP  RH WIND       PRES   REMARKS
GRAND FORKS    CLOUDY    34  29  82 N16       30.21R
GRND FRKS AFB  CLOUDY    34  27  75 N13       30.21R
DEVILS LAKE    CLOUDY    32  25  75 NE10      30.22R
$$

NDZ022-023-025-028>030-036>039-047>053-241900-
SOUTHEAST NORTH DAKOTA

CITY           SKY/WX    TMP DP  RH WIND       PRES   REMARKS
FARGO          CLOUDY    36  30  79 N13       30.19R
6HR MIN TEMP:  35; 6HR MAX TEMP:  39;

JAMESTOWN      FAIR      37  31  78 N12       30.18S
$$




USA.gov is the U.S. government's official web portal to all federal, state and local government web resources and services.